Location: Boissi�res
(45.2500°N, 2.3667°E)
Time: 23:38:45
(UTC+00:00)

ISS - Pass Details

Date: 20 September 2021
Orbit: 417 x 423 km, 51.6° (Epoch: 18 October)

Event Time Altitude Azimuth Distance (km) Brightness Sun altitude
Rises 20:24:10 0° 277° (W) 2,363 1.1 -26.4°
Reaches altitude 10° 20:26:27 10° 290° (WNW) 1,501 0.0 -26.7°
Enters shadow 20:28:20 23° 318° (NW) 936 -1.4 -27.0°
